Year,Month,Day,Hour,Minute,Value (Times are PST for temperature in C)
2006,10,12,00,00,7.90
2006,10,12,00,01,7.90
2006,10,12,00,02,7.90
2006,10,12,00,03,7.90
2006,10,12,00,04,7.90
2006,10,12,00,05,7.90
2006,10,12,00,06,7.80
2006,10,12,00,07,7.80
2006,10,12,00,08,7.80
2006,10,12,00,09,7.80
2006,10,12,00,10,7.80
2006,10,12,00,11,7.80
2006,10,12,00,12,7.80
2006,10,12,00,13,7.80
2006,10,12,00,14,7.80
2006,10,12,00,15,7.80
2006,10,12,00,16,7.80
2006,10,12,00,17,7.70
2006,10,12,00,18,7.70
2006,10,12,00,19,7.70
2006,10,12,00,20,7.70
2006,10,12,00,21,7.70
2006,10,12,00,22,7.70
2006,10,12,00,23,7.70
2006,10,12,00,24,7.70
2006,10,12,00,25,7.70
2006,10,12,00,26,7.70
2006,10,12,00,27,7.70
2006,10,12,00,28,7.70
2006,10,12,00,29,7.70
2006,10,12,00,30,7.70
2006,10,12,00,31,7.70
2006,10,12,00,32,7.70
2006,10,12,00,33,7.70
2006,10,12,00,34,7.70
2006,10,12,00,35,7.70
2006,10,12,00,36,7.70
2006,10,12,00,37,7.70
2006,10,12,00,38,7.70
2006,10,12,00,39,7.70
2006,10,12,00,40,7.70
2006,10,12,00,41,7.70
2006,10,12,00,42,7.70
2006,10,12,00,43,7.70
2006,10,12,00,44,7.60
2006,10,12,00,45,7.70
2006,10,12,00,46,7.70
2006,10,12,00,47,7.70
2006,10,12,00,48,7.70
2006,10,12,00,49,7.70
2006,10,12,00,50,7.70
2006,10,12,00,51,7.70
2006,10,12,00,52,7.60
2006,10,12,00,53,7.60
2006,10,12,00,54,7.60
2006,10,12,00,55,7.60
2006,10,12,00,56,7.60
2006,10,12,00,57,7.50
2006,10,12,00,58,7.50
2006,10,12,00,59,7.40
2006,10,12,01,00,7.40
2006,10,12,01,01,7.40
2006,10,12,01,02,7.30
2006,10,12,01,03,7.30
2006,10,12,01,04,7.30
2006,10,12,01,05,7.30
2006,10,12,01,06,7.30
2006,10,12,01,07,7.40
2006,10,12,01,08,7.40
2006,10,12,01,09,7.40
2006,10,12,01,10,7.40
2006,10,12,01,11,7.40
2006,10,12,01,12,7.40
2006,10,12,01,13,7.40
2006,10,12,01,14,7.40
2006,10,12,01,15,7.40
2006,10,12,01,16,7.40
2006,10,12,01,17,7.40
2006,10,12,01,18,7.40
2006,10,12,01,19,7.30
2006,10,12,01,20,7.30
2006,10,12,01,21,7.30
2006,10,12,01,22,7.30
2006,10,12,01,23,7.30
2006,10,12,01,24,7.30
2006,10,12,01,25,7.30
2006,10,12,01,26,7.30
2006,10,12,01,27,7.30
2006,10,12,01,28,7.30
2006,10,12,01,29,7.30
2006,10,12,01,30,7.40
2006,10,12,01,31,7.40
2006,10,12,01,32,7.40
2006,10,12,01,33,7.50
2006,10,12,01,34,7.50
2006,10,12,01,35,7.60
2006,10,12,01,36,7.60
2006,10,12,01,37,7.60
2006,10,12,01,38,7.60
2006,10,12,01,39,7.60
2006,10,12,01,40,7.60
2006,10,12,01,41,7.60
2006,10,12,01,42,7.60
2006,10,12,01,43,7.60
2006,10,12,01,44,7.60
2006,10,12,01,45,7.60
2006,10,12,01,46,7.60
2006,10,12,01,47,7.60
2006,10,12,01,48,7.60
2006,10,12,01,49,7.60
2006,10,12,01,50,7.60
2006,10,12,01,51,7.60
2006,10,12,01,52,7.60
2006,10,12,01,53,7.60
2006,10,12,01,54,7.50
2006,10,12,01,55,7.50
2006,10,12,01,56,7.50
2006,10,12,01,57,7.50
2006,10,12,01,58,7.50
2006,10,12,01,59,7.50
2006,10,12,02,00,7.50
2006,10,12,02,01,7.50
2006,10,12,02,02,7.50
2006,10,12,02,03,7.50
2006,10,12,02,04,7.50
2006,10,12,02,05,7.40
2006,10,12,02,06,7.40
2006,10,12,02,07,7.40
2006,10,12,02,08,7.40
2006,10,12,02,09,7.40
2006,10,12,02,10,7.30
2006,10,12,02,11,7.30
2006,10,12,02,12,7.30
2006,10,12,02,13,7.30
2006,10,12,02,14,7.30
2006,10,12,02,15,7.30
2006,10,12,02,16,7.30
2006,10,12,02,17,7.30
2006,10,12,02,18,7.30
2006,10,12,02,19,7.30
2006,10,12,02,20,7.30
2006,10,12,02,21,7.30
2006,10,12,02,22,7.30
2006,10,12,02,23,7.20
2006,10,12,02,24,7.20
2006,10,12,02,25,7.20
2006,10,12,02,26,7.20
2006,10,12,02,27,7.20
2006,10,12,02,28,7.20
2006,10,12,02,29,7.20
2006,10,12,02,30,7.20
2006,10,12,02,31,7.10
2006,10,12,02,32,7.10
2006,10,12,02,33,7.10
2006,10,12,02,34,7.10
2006,10,12,02,35,7.10
2006,10,12,02,36,7.00
2006,10,12,02,37,7.00
2006,10,12,02,38,7.00
2006,10,12,02,39,7.00
2006,10,12,02,40,7.00
2006,10,12,02,41,7.00
2006,10,12,02,42,7.00
2006,10,12,02,43,7.00
2006,10,12,02,44,7.00
2006,10,12,02,45,7.10
2006,10,12,02,46,7.10
2006,10,12,02,47,7.10
2006,10,12,02,48,7.10
2006,10,12,02,49,7.10
2006,10,12,02,50,7.10
2006,10,12,02,51,7.10
2006,10,12,02,52,7.10
2006,10,12,02,53,7.00
2006,10,12,02,54,7.00
2006,10,12,02,55,7.00
2006,10,12,02,56,6.90
2006,10,12,02,57,6.90
2006,10,12,02,58,6.90
2006,10,12,02,59,6.90
2006,10,12,03,00,7.00
2006,10,12,03,01,7.00
2006,10,12,03,02,7.00
2006,10,12,03,03,7.00
2006,10,12,03,04,7.00
2006,10,12,03,05,7.00
2006,10,12,03,06,6.90
2006,10,12,03,07,6.90
2006,10,12,03,08,6.90
2006,10,12,03,09,6.90
2006,10,12,03,10,6.80
2006,10,12,03,11,6.80
2006,10,12,03,12,6.80
2006,10,12,03,13,6.80
2006,10,12,03,14,6.80
2006,10,12,03,15,6.80
2006,10,12,03,16,6.80
2006,10,12,03,17,6.80
2006,10,12,03,18,6.80
2006,10,12,03,19,6.80
2006,10,12,03,20,6.80
2006,10,12,03,21,6.80
2006,10,12,03,22,6.80
2006,10,12,03,23,6.80
2006,10,12,03,24,6.80
2006,10,12,03,25,6.80
2006,10,12,03,26,6.80
2006,10,12,03,27,6.80
2006,10,12,03,28,6.80
2006,10,12,03,29,6.80
2006,10,12,03,30,6.80
2006,10,12,03,31,6.80
2006,10,12,03,32,6.70
2006,10,12,03,33,6.70
2006,10,12,03,34,6.70
2006,10,12,03,35,6.70
2006,10,12,03,36,6.60
2006,10,12,03,37,6.60
2006,10,12,03,38,6.60
2006,10,12,03,39,6.60
2006,10,12,03,40,6.50
2006,10,12,03,41,6.40
2006,10,12,03,42,6.40
2006,10,12,03,43,6.40
2006,10,12,03,44,6.40
2006,10,12,03,45,6.40
2006,10,12,03,46,6.40
2006,10,12,03,47,6.40
2006,10,12,03,48,6.40
2006,10,12,03,49,6.40
2006,10,12,03,50,6.40
2006,10,12,03,51,6.40
2006,10,12,03,52,6.40
2006,10,12,03,53,6.40
2006,10,12,03,54,6.40
2006,10,12,03,55,6.40
2006,10,12,03,56,6.40
2006,10,12,03,57,6.40
2006,10,12,03,58,6.50
2006,10,12,03,59,6.60
2006,10,12,04,00,6.60
2006,10,12,04,01,6.60
2006,10,12,04,02,6.60
2006,10,12,04,03,6.60
2006,10,12,04,04,6.60
2006,10,12,04,05,6.60
2006,10,12,04,06,6.60
2006,10,12,04,07,6.60
2006,10,12,04,08,6.70
2006,10,12,04,09,6.70
2006,10,12,04,10,6.80
2006,10,12,04,11,6.80
2006,10,12,04,12,6.80
2006,10,12,04,13,6.90
2006,10,12,04,14,6.90
2006,10,12,04,15,6.90
2006,10,12,04,16,6.90
2006,10,12,04,17,6.90
2006,10,12,04,18,6.90
2006,10,12,04,19,6.90
2006,10,12,04,20,6.90
2006,10,12,04,21,6.90
2006,10,12,04,22,7.00
2006,10,12,04,23,7.10
2006,10,12,04,24,7.20
2006,10,12,04,25,7.30
2006,10,12,04,26,7.30
2006,10,12,04,27,7.30
2006,10,12,04,28,7.30
2006,10,12,04,29,7.30
2006,10,12,04,30,7.30
2006,10,12,04,31,7.40
2006,10,12,04,32,7.40
2006,10,12,04,33,7.50
2006,10,12,04,34,7.50
2006,10,12,04,35,7.50
2006,10,12,04,36,7.60
2006,10,12,04,37,7.60
2006,10,12,04,38,7.60
2006,10,12,04,39,7.70
2006,10,12,04,40,7.60
2006,10,12,04,41,7.60
2006,10,12,04,42,7.60
2006,10,12,04,43,7.50
2006,10,12,04,44,7.50
2006,10,12,04,45,7.40
2006,10,12,04,46,7.40
2006,10,12,04,47,7.30
2006,10,12,04,48,7.30
2006,10,12,04,49,7.30
2006,10,12,04,50,7.30
2006,10,12,04,51,7.30
2006,10,12,04,52,7.40
2006,10,12,04,53,7.50
2006,10,12,04,54,7.60
2006,10,12,04,55,7.60
2006,10,12,04,56,7.70
2006,10,12,04,57,7.70
2006,10,12,04,58,7.80
2006,10,12,04,59,7.80
2006,10,12,05,00,7.80
2006,10,12,05,01,7.80
2006,10,12,05,02,7.90
2006,10,12,05,03,7.90
2006,10,12,05,04,7.90
2006,10,12,05,05,7.80
2006,10,12,05,06,7.80
2006,10,12,05,07,7.80
2006,10,12,05,08,7.70
2006,10,12,05,09,7.70
2006,10,12,05,10,7.60
2006,10,12,05,11,7.60
2006,10,12,05,12,7.50
2006,10,12,05,13,7.50
2006,10,12,05,14,7.60
2006,10,12,05,15,7.60
2006,10,12,05,16,7.50
2006,10,12,05,17,7.50
2006,10,12,05,18,7.50
2006,10,12,05,19,7.40
2006,10,12,05,20,7.40
2006,10,12,05,21,7.30
2006,10,12,05,22,7.30
2006,10,12,05,23,7.30
2006,10,12,05,24,7.20
2006,10,12,05,25,7.20
2006,10,12,05,26,7.10
2006,10,12,05,27,7.10
2006,10,12,05,28,7.10
2006,10,12,05,29,7.10
2006,10,12,05,30,7.10
2006,10,12,05,31,7.10
2006,10,12,05,32,7.10
2006,10,12,05,33,7.10
2006,10,12,05,34,7.10
2006,10,12,05,35,7.10
2006,10,12,05,36,7.20
2006,10,12,05,37,7.20
2006,10,12,05,38,7.20
2006,10,12,05,39,7.20
2006,10,12,05,40,7.20
2006,10,12,05,41,7.10
2006,10,12,05,42,7.10
2006,10,12,05,43,7.00
2006,10,12,05,44,7.00
2006,10,12,05,45,7.00
2006,10,12,05,46,6.90
2006,10,12,05,47,6.90
2006,10,12,05,48,6.80
2006,10,12,05,49,6.80
2006,10,12,05,50,6.80
2006,10,12,05,51,6.80
2006,10,12,05,52,6.80
2006,10,12,05,53,6.80
2006,10,12,05,54,6.80
2006,10,12,05,55,6.80
2006,10,12,05,56,6.80
2006,10,12,05,57,6.80
2006,10,12,05,58,6.80
2006,10,12,05,59,6.70
2006,10,12,06,00,6.70
2006,10,12,06,01,6.70
2006,10,12,06,02,6.70
2006,10,12,06,03,6.70
2006,10,12,06,04,6.70
2006,10,12,06,05,6.70
2006,10,12,06,06,6.70
2006,10,12,06,07,6.60
2006,10,12,06,08,6.60
2006,10,12,06,09,6.60
2006,10,12,06,10,6.60
2006,10,12,06,11,6.60
2006,10,12,06,12,6.60
2006,10,12,06,13,6.60
2006,10,12,06,14,6.60
2006,10,12,06,15,6.70
2006,10,12,06,16,6.70
2006,10,12,06,17,6.70
2006,10,12,06,18,6.70
2006,10,12,06,19,6.70
2006,10,12,06,20,6.80
2006,10,12,06,21,6.80
2006,10,12,06,22,6.80
2006,10,12,06,23,6.80
2006,10,12,06,24,6.80
2006,10,12,06,25,6.80
2006,10,12,06,26,6.80
2006,10,12,06,27,6.80
2006,10,12,06,28,6.80
2006,10,12,06,29,6.80
2006,10,12,06,30,6.80
2006,10,12,06,31,6.80
2006,10,12,06,32,6.70
2006,10,12,06,33,6.70
2006,10,12,06,34,6.70
2006,10,12,06,35,6.70
2006,10,12,06,36,6.60
2006,10,12,06,37,6.60
2006,10,12,06,38,6.60
2006,10,12,06,39,6.60
2006,10,12,06,40,6.60
2006,10,12,06,41,6.60
2006,10,12,06,42,6.60
2006,10,12,06,43,6.60
2006,10,12,06,44,6.60
2006,10,12,06,45,6.60
2006,10,12,06,46,6.60
2006,10,12,06,47,6.60
2006,10,12,06,48,6.60
2006,10,12,06,49,6.50
2006,10,12,06,50,6.40
2006,10,12,06,51,6.40
2006,10,12,06,52,6.40
2006,10,12,06,53,6.50
2006,10,12,06,54,6.60
2006,10,12,06,55,6.60
2006,10,12,06,56,6.60
2006,10,12,06,57,6.50
2006,10,12,06,58,6.40
2006,10,12,06,59,6.40
2006,10,12,07,00,6.40
2006,10,12,07,01,6.40
2006,10,12,07,02,6.40
2006,10,12,07,03,6.40
2006,10,12,07,04,6.40
2006,10,12,07,05,6.40
2006,10,12,07,06,6.40
2006,10,12,07,07,6.40
2006,10,12,07,08,6.30
2006,10,12,07,09,6.30
2006,10,12,07,10,6.30
2006,10,12,07,11,6.30
2006,10,12,07,12,6.30
2006,10,12,07,13,6.30
2006,10,12,07,14,6.20
2006,10,12,07,15,6.20
2006,10,12,07,16,6.20
2006,10,12,07,17,6.20
2006,10,12,07,18,6.20
2006,10,12,07,19,6.20
2006,10,12,07,20,6.20
2006,10,12,07,21,6.20
2006,10,12,07,22,6.20
2006,10,12,07,23,6.20
2006,10,12,07,24,6.20
2006,10,12,07,25,6.20
2006,10,12,07,26,6.20
2006,10,12,07,27,6.20
2006,10,12,07,28,6.20
2006,10,12,07,29,6.20
2006,10,12,07,30,6.20
2006,10,12,07,31,6.20
2006,10,12,07,32,6.20
2006,10,12,07,33,6.20
2006,10,12,07,34,6.20
2006,10,12,07,35,6.20
2006,10,12,07,36,6.20
2006,10,12,07,37,6.20
2006,10,12,07,38,6.20
2006,10,12,07,39,6.20
2006,10,12,07,40,6.20
2006,10,12,07,41,6.20
2006,10,12,07,42,6.20
2006,10,12,07,43,6.20
2006,10,12,07,44,6.20
2006,10,12,07,45,6.20
2006,10,12,07,46,6.20
2006,10,12,07,47,6.20
2006,10,12,07,48,6.20
2006,10,12,07,49,6.20
2006,10,12,07,50,6.20
2006,10,12,07,51,6.20
2006,10,12,07,52,6.20
2006,10,12,07,53,6.30
2006,10,12,07,54,6.30
2006,10,12,07,55,6.30
2006,10,12,07,56,6.30
2006,10,12,07,57,6.30
2006,10,12,07,58,6.30
2006,10,12,07,59,6.30
2006,10,12,08,00,6.40
2006,10,12,08,01,6.40
2006,10,12,08,02,6.40
2006,10,12,08,03,6.50
2006,10,12,08,04,6.60
2006,10,12,08,05,6.60
2006,10,12,08,06,6.60
2006,10,12,08,07,6.70
2006,10,12,08,08,6.70
2006,10,12,08,09,6.70
2006,10,12,08,10,6.70
2006,10,12,08,11,6.70
2006,10,12,08,12,6.70
2006,10,12,08,13,6.70
2006,10,12,08,14,6.70
2006,10,12,08,15,6.70
2006,10,12,08,16,6.70
2006,10,12,08,17,6.80
2006,10,12,08,18,6.80
2006,10,12,08,19,6.80
2006,10,12,08,20,6.90
2006,10,12,08,21,7.00
2006,10,12,08,22,7.00
2006,10,12,08,23,7.10
2006,10,12,08,24,7.20
2006,10,12,08,25,7.30
2006,10,12,08,26,7.50
2006,10,12,08,27,7.50
2006,10,12,08,28,7.60
2006,10,12,08,29,7.70
2006,10,12,08,30,7.80
2006,10,12,08,31,7.90
2006,10,12,08,32,8.00
2006,10,12,08,33,8.10
2006,10,12,08,34,8.20
2006,10,12,08,35,8.20
2006,10,12,08,36,8.30
2006,10,12,08,37,8.50
2006,10,12,08,38,8.50
2006,10,12,08,39,8.50
2006,10,12,08,40,8.50
2006,10,12,08,41,8.50
2006,10,12,08,42,8.50
2006,10,12,08,43,8.60
2006,10,12,08,44,8.60
2006,10,12,08,45,8.60
2006,10,12,08,46,8.60
2006,10,12,08,47,8.60
2006,10,12,08,48,8.60
2006,10,12,08,49,8.60
2006,10,12,08,50,8.60
2006,10,12,08,51,8.70
2006,10,12,08,52,8.70
2006,10,12,08,53,8.70
2006,10,12,08,54,8.70
2006,10,12,08,55,8.70
2006,10,12,08,56,8.70
2006,10,12,08,57,8.80
2006,10,12,08,58,8.80
2006,10,12,08,59,8.90
2006,10,12,09,00,8.90
2006,10,12,09,01,9.00
2006,10,12,09,02,9.00
2006,10,12,09,03,9.10
2006,10,12,09,04,9.10
2006,10,12,09,05,9.20
2006,10,12,09,06,9.20
2006,10,12,09,07,9.20
2006,10,12,09,08,9.30
2006,10,12,09,09,9.30
2006,10,12,09,10,9.30
2006,10,12,09,11,9.40
2006,10,12,09,12,9.50
2006,10,12,09,13,9.60
2006,10,12,09,14,9.70
2006,10,12,09,15,9.70
2006,10,12,09,16,9.90
2006,10,12,09,17,10.10
2006,10,12,09,18,10.10
2006,10,12,09,19,10.20
2006,10,12,09,20,10.30
2006,10,12,09,21,10.30
2006,10,12,09,22,10.40
2006,10,12,09,23,10.50
2006,10,12,09,24,10.60
2006,10,12,09,25,10.60
2006,10,12,09,26,10.70
2006,10,12,09,27,10.80
2006,10,12,09,28,10.90
2006,10,12,09,29,10.90
2006,10,12,09,30,11.00
2006,10,12,09,31,11.10
2006,10,12,09,32,11.10
2006,10,12,09,33,11.20
2006,10,12,09,34,11.20
2006,10,12,09,35,11.20
2006,10,12,09,36,11.30
2006,10,12,09,37,11.40
2006,10,12,09,38,11.40
2006,10,12,09,39,11.50
2006,10,12,09,40,11.60
2006,10,12,09,41,11.60
2006,10,12,09,42,11.70
2006,10,12,09,43,11.70
2006,10,12,09,44,11.80
2006,10,12,09,45,11.90
2006,10,12,09,46,11.90
2006,10,12,09,47,12.00
2006,10,12,09,48,12.00
2006,10,12,09,49,12.10
2006,10,12,09,50,12.10
2006,10,12,09,51,12.20
2006,10,12,09,52,12.20
2006,10,12,09,53,12.20
2006,10,12,09,54,12.30
2006,10,12,09,55,12.30
2006,10,12,09,56,12.30
2006,10,12,09,57,12.40
2006,10,12,09,58,12.50
2006,10,12,09,59,12.50
2006,10,12,10,00,12.50
2006,10,12,10,01,12.60
2006,10,12,10,02,12.60
2006,10,12,10,03,12.60
2006,10,12,10,04,12.70
2006,10,12,10,05,12.80
2006,10,12,10,06,12.80
2006,10,12,10,07,12.80
2006,10,12,10,08,12.90
2006,10,12,10,09,12.90
2006,10,12,10,10,13.00
2006,10,12,10,11,13.00
2006,10,12,10,12,13.10
2006,10,12,10,13,13.10
2006,10,12,10,14,13.10
2006,10,12,10,15,13.20
2006,10,12,10,16,13.20
2006,10,12,10,17,13.20
2006,10,12,10,18,13.20
2006,10,12,10,19,13.20
2006,10,12,10,20,13.30
2006,10,12,10,21,13.30
2006,10,12,10,22,13.40
2006,10,12,10,23,13.40
2006,10,12,10,24,13.50
2006,10,12,10,25,13.50
2006,10,12,10,26,13.60
2006,10,12,10,27,13.60
2006,10,12,10,28,13.70
2006,10,12,10,29,13.70
2006,10,12,10,30,13.80
2006,10,12,10,31,13.80
2006,10,12,10,32,13.80
2006,10,12,10,33,14.00
2006,10,12,10,34,14.00
2006,10,12,10,35,14.10
2006,10,12,10,36,14.10
2006,10,12,10,37,14.20
2006,10,12,10,38,14.20
2006,10,12,10,39,14.20
2006,10,12,10,40,14.20
2006,10,12,10,41,14.20
2006,10,12,10,42,14.20
2006,10,12,10,43,14.30
2006,10,12,10,44,14.30
2006,10,12,10,45,14.40
2006,10,12,10,46,14.50
2006,10,12,10,47,14.50
2006,10,12,10,48,14.60
2006,10,12,10,49,14.60
2006,10,12,10,50,14.70
2006,10,12,10,51,14.70
2006,10,12,10,52,14.80
2006,10,12,10,53,14.80
2006,10,12,10,54,14.90
2006,10,12,10,55,15.00
2006,10,12,10,56,15.00
2006,10,12,10,57,15.10
2006,10,12,10,58,15.10
2006,10,12,10,59,15.20
2006,10,12,11,00,15.20
2006,10,12,11,01,15.20
2006,10,12,11,02,15.20
2006,10,12,11,03,15.20
2006,10,12,11,04,15.20
2006,10,12,11,05,15.20
2006,10,12,11,06,15.20
2006,10,12,11,07,15.20
2006,10,12,11,08,15.30
2006,10,12,11,09,15.30
2006,10,12,11,10,15.30
2006,10,12,11,11,15.40
2006,10,12,11,12,15.40
2006,10,12,11,13,15.40
2006,10,12,11,14,15.40
2006,10,12,11,15,15.50
2006,10,12,11,16,15.50
2006,10,12,11,17,15.50
2006,10,12,11,18,15.50
2006,10,12,11,19,15.60
2006,10,12,11,20,15.60
2006,10,12,11,21,15.60
2006,10,12,11,22,15.60
2006,10,12,11,23,15.70
2006,10,12,11,24,15.70
2006,10,12,11,25,15.70
2006,10,12,11,26,15.70
2006,10,12,11,27,15.80
2006,10,12,11,28,15.80
2006,10,12,11,29,15.80
2006,10,12,11,30,15.80
2006,10,12,11,31,15.80
2006,10,12,11,32,15.80
2006,10,12,11,33,15.90
2006,10,12,11,34,16.00
2006,10,12,11,35,16.10
2006,10,12,11,36,16.10
2006,10,12,11,37,16.10
2006,10,12,11,38,16.10
2006,10,12,11,39,16.20
2006,10,12,11,40,16.20
2006,10,12,11,41,16.20
2006,10,12,11,42,16.30
2006,10,12,11,43,16.30
2006,10,12,11,44,16.30
2006,10,12,11,45,16.30
2006,10,12,11,46,16.30
2006,10,12,11,47,16.30
2006,10,12,11,48,16.30
2006,10,12,11,49,16.40
2006,10,12,11,50,16.40
2006,10,12,11,51,16.40
2006,10,12,11,52,16.40
2006,10,12,11,53,16.50
2006,10,12,11,54,16.60
2006,10,12,11,55,16.70
2006,10,12,11,56,16.70
2006,10,12,11,57,16.70
2006,10,12,11,58,16.70
2006,10,12,11,59,16.70
2006,10,12,12,00,16.70
2006,10,12,12,01,16.70
2006,10,12,12,02,16.70
2006,10,12,12,03,16.80
2006,10,12,12,04,16.80
2006,10,12,12,05,16.90
2006,10,12,12,06,16.90
2006,10,12,12,07,16.90
2006,10,12,12,08,16.90
2006,10,12,12,09,17.00
2006,10,12,12,10,17.00
2006,10,12,12,11,17.00
2006,10,12,12,12,17.00
2006,10,12,12,13,17.10
2006,10,12,12,14,17.20
2006,10,12,12,15,17.30
2006,10,12,12,16,17.30
2006,10,12,12,17,17.30
2006,10,12,12,18,17.30
2006,10,12,12,19,17.30
2006,10,12,12,20,17.30
2006,10,12,12,21,17.30
2006,10,12,12,22,17.30
2006,10,12,12,23,17.30
2006,10,12,12,24,17.30
2006,10,12,12,25,17.30
2006,10,12,12,26,17.40
2006,10,12,12,27,17.40
2006,10,12,12,28,17.40
2006,10,12,12,29,17.40
2006,10,12,12,30,17.40
2006,10,12,12,31,17.50
2006,10,12,12,32,17.50
2006,10,12,12,33,17.50
2006,10,12,12,34,17.60
2006,10,12,12,35,17.60
2006,10,12,12,36,17.70
2006,10,12,12,37,17.60
2006,10,12,12,38,17.60
2006,10,12,12,39,17.50
2006,10,12,12,40,17.50
2006,10,12,12,41,17.60
2006,10,12,12,42,17.60
2006,10,12,12,43,17.60
2006,10,12,12,44,17.70
2006,10,12,12,45,17.70
2006,10,12,12,46,17.70
2006,10,12,12,47,17.80
2006,10,12,12,48,17.80
2006,10,12,12,49,17.80
2006,10,12,12,50,17.90
2006,10,12,12,51,17.90
2006,10,12,12,52,17.90
2006,10,12,12,53,17.90
2006,10,12,12,54,17.90
2006,10,12,12,55,18.00
2006,10,12,12,56,18.10
2006,10,12,12,57,18.20
2006,10,12,12,58,18.20
2006,10,12,12,59,18.30
2006,10,12,13,00,18.40
2006,10,12,13,01,18.50
2006,10,12,13,02,18.60
2006,10,12,13,03,18.70
2006,10,12,13,04,18.80
2006,10,12,13,05,18.80
2006,10,12,13,06,18.90
2006,10,12,13,07,18.90
2006,10,12,13,08,18.90
2006,10,12,13,09,19.00
2006,10,12,13,10,19.10
2006,10,12,13,11,19.10
2006,10,12,13,12,19.10
2006,10,12,13,13,19.10
2006,10,12,13,14,19.20
2006,10,12,13,15,19.30
2006,10,12,13,16,19.40
2006,10,12,13,17,19.50
2006,10,12,13,18,19.50
2006,10,12,13,19,19.50
2006,10,12,13,20,19.50
2006,10,12,13,21,19.60
2006,10,12,13,22,19.60
2006,10,12,13,23,19.60
2006,10,12,13,24,19.60
2006,10,12,13,25,19.70
2006,10,12,13,26,19.80
2006,10,12,13,27,19.80
2006,10,12,13,28,19.90
2006,10,12,13,29,19.90
2006,10,12,13,30,19.90
2006,10,12,13,31,20.10
2006,10,12,13,32,20.10
2006,10,12,13,33,19.90
2006,10,12,13,34,19.90
2006,10,12,13,35,19.90
2006,10,12,13,36,19.90
2006,10,12,13,37,19.90
2006,10,12,13,38,19.80
2006,10,12,13,39,19.80
2006,10,12,13,40,19.70
2006,10,12,13,41,19.60
2006,10,12,13,42,19.60
2006,10,12,13,43,19.50
2006,10,12,13,44,19.50
2006,10,12,13,45,19.40
2006,10,12,13,46,19.40
2006,10,12,13,47,19.40
2006,10,12,13,48,19.30
2006,10,12,13,49,19.30
2006,10,12,13,50,19.20
2006,10,12,13,51,19.20
2006,10,12,13,52,19.20
2006,10,12,13,53,19.30
2006,10,12,13,54,19.40
2006,10,12,13,55,19.50
2006,10,12,13,56,19.60
2006,10,12,13,57,19.70
2006,10,12,13,58,19.70
2006,10,12,13,59,19.60
2006,10,12,14,00,19.60
2006,10,12,14,01,19.70
2006,10,12,14,02,19.70
2006,10,12,14,03,19.70
2006,10,12,14,04,19.70
2006,10,12,14,05,19.80
2006,10,12,14,06,19.80
2006,10,12,14,07,19.90
2006,10,12,14,08,19.90
2006,10,12,14,09,19.90
2006,10,12,14,10,19.90
2006,10,12,14,11,19.80
2006,10,12,14,12,19.80
2006,10,12,14,13,19.70
2006,10,12,14,14,19.60
2006,10,12,14,15,19.60
2006,10,12,14,16,19.60
2006,10,12,14,17,19.60
2006,10,12,14,18,19.70
2006,10,12,14,19,19.70
2006,10,12,14,20,19.80
2006,10,12,14,21,19.80
2006,10,12,14,22,19.80
2006,10,12,14,23,19.90
2006,10,12,14,24,19.90
2006,10,12,14,25,19.90
2006,10,12,14,26,19.90
2006,10,12,14,27,19.90
2006,10,12,14,28,20.00
2006,10,12,14,29,20.10
2006,10,12,14,30,20.20
2006,10,12,14,31,20.20
2006,10,12,14,32,20.00
2006,10,12,14,33,19.90
2006,10,12,14,34,19.90
2006,10,12,14,35,19.90
2006,10,12,14,36,19.80
2006,10,12,14,37,19.70
2006,10,12,14,38,19.60
2006,10,12,14,39,19.60
2006,10,12,14,40,19.60
2006,10,12,14,41,19.50
2006,10,12,14,42,19.50
2006,10,12,14,43,19.50
2006,10,12,14,44,19.50
2006,10,12,14,45,19.50
2006,10,12,14,46,19.40
2006,10,12,14,47,19.30
2006,10,12,14,48,19.30
2006,10,12,14,49,19.40
2006,10,12,14,50,19.40
2006,10,12,14,51,19.40
2006,10,12,14,52,19.40
2006,10,12,14,53,19.40
2006,10,12,14,54,19.30
2006,10,12,14,55,19.30
2006,10,12,14,56,19.20
2006,10,12,14,57,19.10
2006,10,12,14,58,19.10
2006,10,12,14,59,19.10
2006,10,12,15,00,19.20
2006,10,12,15,01,19.20
2006,10,12,15,02,19.30
2006,10,12,15,03,19.30
2006,10,12,15,04,19.40
2006,10,12,15,05,19.40
2006,10,12,15,06,19.50
2006,10,12,15,07,19.60
2006,10,12,15,08,19.60
2006,10,12,15,09,19.60
2006,10,12,15,10,19.50
2006,10,12,15,11,19.50
2006,10,12,15,12,19.50
2006,10,12,15,13,19.40
2006,10,12,15,14,19.50
2006,10,12,15,15,19.50
2006,10,12,15,16,19.50
2006,10,12,15,17,19.40
2006,10,12,15,18,19.40
2006,10,12,15,19,19.40
2006,10,12,15,20,19.40
2006,10,12,15,21,19.40
2006,10,12,15,22,19.40
2006,10,12,15,23,19.30
2006,10,12,15,24,19.20
2006,10,12,15,25,19.20
2006,10,12,15,26,19.30
2006,10,12,15,27,19.30
2006,10,12,15,28,19.20
2006,10,12,15,29,19.10
2006,10,12,15,30,19.00
2006,10,12,15,31,18.90
2006,10,12,15,32,18.90
2006,10,12,15,33,18.90
2006,10,12,15,34,18.80
2006,10,12,15,35,18.80
2006,10,12,15,36,18.80
2006,10,12,15,37,18.80
2006,10,12,15,38,18.80
2006,10,12,15,39,18.90
2006,10,12,15,40,18.80
2006,10,12,15,41,18.80
2006,10,12,15,42,18.80
2006,10,12,15,43,18.90
2006,10,12,15,44,18.90
2006,10,12,15,45,18.90
2006,10,12,15,46,18.80
2006,10,12,15,47,18.80
2006,10,12,15,48,18.80
2006,10,12,15,49,18.80
2006,10,12,15,50,18.70
2006,10,12,15,51,18.70
2006,10,12,15,52,18.70
2006,10,12,15,53,18.70
2006,10,12,15,54,18.80
2006,10,12,15,55,18.80
2006,10,12,15,56,18.80
2006,10,12,15,57,18.90
2006,10,12,15,58,18.90
2006,10,12,15,59,18.90
2006,10,12,16,00,18.90
2006,10,12,16,01,18.90
2006,10,12,16,02,19.00
2006,10,12,16,03,19.10
2006,10,12,16,04,19.10
2006,10,12,16,05,19.10
2006,10,12,16,06,19.10
2006,10,12,16,07,19.10
2006,10,12,16,08,19.10
2006,10,12,16,09,19.10
2006,10,12,16,10,19.10
2006,10,12,16,11,19.00
2006,10,12,16,12,18.90
2006,10,12,16,13,18.90
2006,10,12,16,14,18.80
2006,10,12,16,15,18.80
2006,10,12,16,16,18.80
2006,10,12,16,17,18.70
2006,10,12,16,18,18.60
2006,10,12,16,19,18.60
2006,10,12,16,20,18.60
2006,10,12,16,21,18.60
2006,10,12,16,22,18.60
2006,10,12,16,23,18.50
2006,10,12,16,24,18.40
2006,10,12,16,25,18.40
2006,10,12,16,26,18.40
2006,10,12,16,27,18.40
2006,10,12,16,28,18.50
2006,10,12,16,29,18.50
2006,10,12,16,30,18.50
2006,10,12,16,31,18.50
2006,10,12,16,32,18.60
2006,10,12,16,33,18.60
2006,10,12,16,34,18.60
2006,10,12,16,35,18.60
2006,10,12,16,36,18.60
2006,10,12,16,37,18.70
2006,10,12,16,38,18.70
2006,10,12,16,39,18.70
2006,10,12,16,40,18.70
2006,10,12,16,41,18.70
2006,10,12,16,42,18.70
2006,10,12,16,43,18.80
2006,10,12,16,44,18.80
2006,10,12,16,45,18.80
2006,10,12,16,46,18.80
2006,10,12,16,47,18.80
2006,10,12,16,48,18.80
2006,10,12,16,49,18.80
2006,10,12,16,50,18.80
2006,10,12,16,51,18.80
2006,10,12,16,52,18.90
2006,10,12,16,53,18.90
2006,10,12,16,54,18.90
2006,10,12,16,55,18.90
2006,10,12,16,56,18.90
2006,10,12,16,57,18.90
2006,10,12,16,58,18.90
2006,10,12,16,59,18.90
2006,10,12,17,00,18.90
2006,10,12,17,01,18.90
2006,10,12,17,02,18.90
2006,10,12,17,03,18.90
2006,10,12,17,04,18.90
2006,10,12,17,05,18.90
2006,10,12,17,06,18.90
2006,10,12,17,07,18.90
2006,10,12,17,08,18.90
2006,10,12,17,09,18.90
2006,10,12,17,10,18.90
2006,10,12,17,11,19.00
2006,10,12,17,12,19.10
2006,10,12,17,13,19.00
2006,10,12,17,14,19.00
2006,10,12,17,15,18.90
2006,10,12,17,16,19.00
2006,10,12,17,17,19.10
2006,10,12,17,18,19.10
2006,10,12,17,19,19.10
2006,10,12,17,20,19.10
2006,10,12,17,21,19.10
2006,10,12,17,22,19.10
2006,10,12,17,23,19.10
2006,10,12,17,24,19.00
2006,10,12,17,25,18.90
2006,10,12,17,26,18.90
2006,10,12,17,27,18.80
2006,10,12,17,28,18.80
2006,10,12,17,29,18.70
2006,10,12,17,30,18.70
2006,10,12,17,31,18.70
2006,10,12,17,32,18.70
2006,10,12,17,33,18.60
2006,10,12,17,34,18.60
2006,10,12,17,35,18.60
2006,10,12,17,36,18.50
2006,10,12,17,37,18.40
2006,10,12,17,38,18.40
2006,10,12,17,39,18.30
2006,10,12,17,40,18.20
2006,10,12,17,41,18.10
2006,10,12,17,42,18.00
2006,10,12,17,43,17.90